owner,sensor,date,latitude,longitude,vertical_datum,direction_of_sea_water_velocity,sea_water_speed,upward_sea_water_velocity,qcFlag 
ADCP,ioos:station:wmo:42373:1,2008-04-01T00:08:00Z,27.3540,-94.6250,79.0,217.0,34.0,-9999.0,'11111222,11111222,99999999' 
ADCP,ioos:station:wmo:42373:1,2008-04-01T00:28:00Z,27.3540,-94.6250,79.0,221.0,35.8,-9999.0,'11111222,11111222,99999999' 
ADCP,ioos:station:wmo:42373:1,2008-04-01T00:48:00Z,27.3540,-94.6250,79.0,222.0,35.3,-9999.0,'11111222,11111222,99999999' 
ADCP,ioos:station:wmo:42373:1,2008-04-01T01:08:00Z,27.3540,-94.6250,79.0,221.0,31.9,-9999.0,'11111222,11111222,99999999' 
ADCP,ioos:station:wmo:42373:1,2008-04-01T01:28:00Z,27.3540,-94.6250,79.0,220.0,30.2,-9999.0,'11111222,11111222,99999999' 
ADCP,ioos:station:wmo:42373:1,2008-04-01T01:48:00Z,27.3540,-94.6250,79.0,222.0,30.2,-9999.0,'11111222,11111222,99999999' 
ADCP,ioos:station:wmo:42373:1,2008-04-01T02:08:00Z,27.3540,-94.6250,79.0,223.0,29.7,-9999.0,'11111222,11111222,99999999' 
ADCP,ioos:station:wmo:42373:1,2008-04-01T02:28:00Z,27.3540,-94.6250,79.0,222.0,28.3,-9999.0,'11111222,11111222,99999999' 
ADCP,ioos:station:wmo:42373:1,2008-04-01T02:48:00Z,27.3540,-94.6250,79.0,226.0,28.9,-9999.0,'11111222,11111222,99999999' 
ADCP,ioos:station:wmo:42373:1,2008-04-01T03:08:00Z,27.3540,-94.6250,79.0,226.0,27.7,-9999.0,'11111222,11111222,99999999' 
ADCP,ioos:station:wmo:42373:1,2008-04-01T03:28:00Z,27.3540,-94.6250,79.0,228.0,27.4,-9999.0,'11111222,11111222,99999999' 
ADCP,ioos:station:wmo:42373:1,2008-04-01T03:48:00Z,27.3540,-94.6250,79.0,228.0,27.3,-9999.0,'11111222,11111222,99999999' 
ADCP,ioos:station:wmo:42373:1,2008-04-01T04:08:00Z,27.3540,-94.6250,79.0,229.0,27.1,-9999.0,'11111222,11111222,99999999' 
ADCP,ioos:station:wmo:42373:1,2008-04-01T04:28:00Z,27.3540,-94.6250,79.0,230.0,25.1,-9999.0,'11111222,11111222,99999999' 
ADCP,ioos:station:wmo:42373:1,2008-04-01T04:48:00Z,27.3540,-94.6250,79.0,231.0,25.3,-9999.0,'11111222,11111222,99999999' 
ADCP,ioos:station:wmo:42373:1,2008-04-01T05:08:00Z,27.3540,-94.6250,79.0,233.0,26.7,-9999.0,'11111222,11111222,99999999' 
ADCP,ioos:station:wmo:42373:1,2008-04-01T05:28:00Z,27.3540,-94.6250,79.0,232.0,25.8,-9999.0,'11111222,11111222,99999999' 
ADCP,ioos:station:wmo:42373:1,2008-04-01T05:48:00Z,27.3540,-94.6250,79.0,228.0,31.6,-9999.0,'11111222,11111222,99999999' 
ADCP,ioos:station:wmo:42373:1,2008-04-01T06:08:00Z,27.3540,-94.6250,79.0,226.0,30.9,-9999.0,'11111222,11111222,99999999' 
ADCP,ioos:station:wmo:42373:1,2008-04-01T06:28:00Z,27.3540,-94.6250,79.0,227.0,29.8,-9999.0,'11111222,11111222,99999999' 
ADCP,ioos:station:wmo:42373:1,2008-04-01T06:48:00Z,27.3540,-94.6250,79.0,226.0,28.2,-9999.0,'11111222,11111222,99999999' 
ADCP,ioos:station:wmo:42373:1,2008-04-01T07:08:00Z,27.3540,-94.6250,79.0,225.0,26.5,-9999.0,'11111222,11111222,99999999' 
ADCP,ioos:station:wmo:42373:1,2008-04-01T07:28:00Z,27.3540,-94.6250,79.0,228.0,26.7,-9999.0,'11111222,11111222,99999999' 
ADCP,ioos:station:wmo:42373:1,2008-04-01T07:48:00Z,27.3540,-94.6250,79.0,228.0,26.8,-9999.0,'11111222,11111222,99999999' 
ADCP,ioos:station:wmo:42373:1,2008-04-01T08:08:00Z,27.3540,-94.6250,79.0,229.0,26.2,-9999.0,'11111222,11111222,99999999' 
ADCP,ioos:station:wmo:42373:1,2008-04-01T08:28:00Z,27.3540,-94.6250,79.0,228.0,26.2,-9999.0,'11111222,11111222,99999999' 
ADCP,ioos:station:wmo:42373:1,2008-04-01T08:48:00Z,27.3540,-94.6250,79.0,232.0,27.4,-9999.0,'11111222,11111222,99999999' 
ADCP,ioos:station:wmo:42373:1,2008-04-01T09:08:00Z,27.3540,-94.6250,79.0,229.0,25.6,-9999.0,'11111222,11111222,99999999' 
ADCP,ioos:station:wmo:42373:1,2008-04-01T09:28:00Z,27.3540,-94.6250,79.0,235.0,26.6,-9999.0,'11111222,11111222,99999999' 
ADCP,ioos:station:wmo:42373:1,2008-04-01T09:48:00Z,27.3540,-94.6250,79.0,236.0,24.7,-9999.0,'11111222,11111222,99999999' 
ADCP,ioos:station:wmo:42373:1,2008-04-01T10:08:00Z,27.3540,-94.6250,79.0,241.0,23.2,-9999.0,'11111222,11111222,99999999' 
ADCP,ioos:station:wmo:42373:1,2008-04-01T10:28:00Z,27.3540,-94.6250,79.0,243.0,21.8,-9999.0,'11111222,11111222,99999999' 
ADCP,ioos:station:wmo:42373:1,2008-04-01T10:48:00Z,27.3540,-94.6250,79.0,249.0,19.7,-9999.0,'11111222,11111222,99999999' 
ADCP,ioos:station:wmo:42373:1,2008-04-01T11:08:00Z,27.3540,-94.6250,79.0,252.0,18.5,-9999.0,'11111222,11111222,99999999' 
ADCP,ioos:station:wmo:42373:1,2008-04-01T11:28:00Z,27.3540,-94.6250,79.0,246.0,15.0,-9999.0,'11111222,11111222,99999999' 
ADCP,ioos:station:wmo:42373:1,2008-04-01T11:48:00Z,27.3540,-94.6250,79.0,256.0,20.9,-9999.0,'11111222,11111222,99999999' 
ADCP,ioos:station:wmo:42373:1,2008-04-01T12:08:00Z,27.3540,-94.6250,79.0,259.0,16.0,-9999.0,'11111222,11111222,99999999' 
ADCP,ioos:station:wmo:42373:1,2008-04-01T12:28:00Z,27.3540,-94.6250,79.0,265.0,17.3,-9999.0,'11111222,11111222,99999999' 
ADCP,ioos:station:wmo:42373:1,2008-04-01T12:48:00Z,27.3540,-94.6250,79.0,256.0,15.8,-9999.0,'11111222,11111222,99999999' 
ADCP,ioos:station:wmo:42373:1,2008-04-01T13:08:00Z,27.3540,-94.6250,79.0,255.0,16.6,-9999.0,'11111222,11111222,99999999' 
ADCP,ioos:station:wmo:42373:1,2008-04-01T13:28:00Z,27.3540,-94.6250,79.0,254.0,14.5,-9999.0,'11111222,11111222,99999999' 
ADCP,ioos:station:wmo:42373:1,2008-04-01T13:48:00Z,27.3540,-94.6250,79.0,257.0,14.1,-9999.0,'11111222,11111222,99999999' 
ADCP,ioos:station:wmo:42373:1,2008-04-01T14:08:00Z,27.3540,-94.6250,79.0,252.0,14.2,-9999.0,'11111222,11111222,99999999' 
ADCP,ioos:station:wmo:42373:1,2008-04-01T14:28:00Z,27.3540,-94.6250,79.0,252.0,12.0,-9999.0,'11111222,11111222,99999999' 
ADCP,ioos:station:wmo:42373:1,2008-04-01T14:48:00Z,27.3540,-94.6250,79.0,248.0,10.0,-9999.0,'11111222,11111222,99999999' 
ADCP,ioos:station:wmo:42373:1,2008-04-01T15:08:00Z,27.3540,-94.6250,79.0,244.0,8.6,-9999.0,'11133222,11111222,99999999' 
ADCP,ioos:station:wmo:42373:1,2008-04-01T15:28:00Z,27.3540,-94.6250,79.0,241.0,10.3,-9999.0,'11111222,11111222,99999999' 
ADCP,ioos:station:wmo:42373:1,2008-04-01T15:48:00Z,27.3540,-94.6250,79.0,237.0,10.9,-9999.0,'11111222,11111222,99999999' 
ADCP,ioos:station:wmo:42373:1,2008-04-01T16:08:00Z,27.3540,-94.6250,79.0,230.0,9.7,-9999.0,'11133222,11111222,99999999' 
ADCP,ioos:station:wmo:42373:1,2008-04-01T16:28:00Z,27.3540,-94.6250,79.0,224.0,9.0,-9999.0,'11133222,11111222,99999999' 
ADCP,ioos:station:wmo:42373:1,2008-04-01T16:48:00Z,27.3540,-94.6250,79.0,207.0,9.0,-9999.0,'11133222,11111222,99999999' 
ADCP,ioos:station:wmo:42373:1,2008-04-01T17:08:00Z,27.3540,-94.6250,79.0,211.0,9.4,-9999.0,'11133222,11111222,99999999' 
ADCP,ioos:station:wmo:42373:1,2008-04-01T17:28:00Z,27.3540,-94.6250,79.0,196.0,9.3,-9999.0,'11133222,11111222,99999999' 
ADCP,ioos:station:wmo:42373:1,2008-04-01T17:48:00Z,27.3540,-94.6250,79.0,204.0,12.0,-9999.0,'11111222,11111222,99999999' 
ADCP,ioos:station:wmo:42373:1,2008-04-01T18:08:00Z,27.3540,-94.6250,79.0,203.0,13.7,-9999.0,'11111222,11111222,99999999' 
ADCP,ioos:station:wmo:42373:1,2008-04-01T18:28:00Z,27.3540,-94.6250,79.0,207.0,15.4,-9999.0,'11111222,11111222,99999999' 
ADCP,ioos:station:wmo:42373:1,2008-04-01T18:48:00Z,27.3540,-94.6250,79.0,202.0,15.7,-9999.0,'11111222,11111222,99999999' 
ADCP,ioos:station:wmo:42373:1,2008-04-01T19:08:00Z,27.3540,-94.6250,79.0,201.0,16.8,-9999.0,'11111222,11111222,99999999' 
ADCP,ioos:station:wmo:42373:1,2008-04-01T19:28:00Z,27.3540,-94.6250,79.0,201.0,18.8,-9999.0,'11111222,11111222,99999999' 
ADCP,ioos:station:wmo:42373:1,2008-04-01T19:48:00Z,27.3540,-94.6250,79.0,199.0,20.5,-9999.0,'11111222,11111222,99999999' 
ADCP,ioos:station:wmo:42373:1,2008-04-01T20:08:00Z,27.3540,-94.6250,79.0,181.0,20.5,-9999.0,'11111222,11111222,99999999' 
ADCP,ioos:station:wmo:42373:1,2008-04-01T20:28:00Z,27.3540,-94.6250,79.0,200.0,21.0,-9999.0,'11111222,11111222,99999999' 
ADCP,ioos:station:wmo:42373:1,2008-04-01T20:48:00Z,27.3540,-94.6250,79.0,192.0,31.6,-9999.0,'11111222,11111222,99999999' 
ADCP,ioos:station:wmo:42373:1,2008-04-01T21:08:00Z,27.3540,-94.6250,79.0,188.0,18.5,-9999.0,'11111222,11111222,99999999' 
ADCP,ioos:station:wmo:42373:1,2008-04-01T21:28:00Z,27.3540,-94.6250,79.0,171.0,27.7,-9999.0,'11111222,11111222,99999999' 
ADCP,ioos:station:wmo:42373:1,2008-04-01T21:48:00Z,27.3540,-94.6250,79.0,186.0,20.0,-9999.0,'11111222,11111222,99999999' 
ADCP,ioos:station:wmo:42373:1,2008-04-01T22:08:00Z,27.3540,-94.6250,79.0,178.0,20.0,-9999.0,'11111222,11111222,99999999' 
ADCP,ioos:station:wmo:42373:1,2008-04-01T22:28:00Z,27.3540,-94.6250,79.0,194.0,19.6,-9999.0,'11111222,11111222,99999999' 
ADCP,ioos:station:wmo:42373:1,2008-04-01T22:48:00Z,27.3540,-94.6250,79.0,202.0,20.0,-9999.0,'11111222,11111222,99999999' 
ADCP,ioos:station:wmo:42373:1,2008-04-01T23:08:00Z,27.3540,-94.6250,79.0,208.0,21.9,-9999.0,'11111222,11111222,99999999' 
ADCP,ioos:station:wmo:42373:1,2008-04-01T23:28:00Z,27.3540,-94.6250,79.0,207.0,22.0,-9999.0,'11111222,11111222,99999999' 
ADCP,ioos:station:wmo:42373:1,2008-04-01T23:48:00Z,27.3540,-94.6250,79.0,207.0,23.4,-9999.0,'11111222,11111222,99999999' 
ADCP,ioos:station:wmo:42373:1,2008-04-02T00:08:00Z,27.3540,-94.6250,79.0,209.0,23.4,-9999.0,'11111222,11111222,99999999' 
ADCP,ioos:station:wmo:42373:1,2008-04-02T00:28:00Z,27.3540,-94.6250,79.0,199.0,23.2,-9999.0,'11111222,11111222,99999999' 
ADCP,ioos:station:wmo:42373:1,2008-04-02T00:48:00Z,27.3540,-94.6250,79.0,196.0,23.5,-9999.0,'11111222,11111222,99999999' 
ADCP,ioos:station:wmo:42373:1,2008-04-02T01:08:00Z,27.3540,-94.6250,79.0,194.0,23.2,-9999.0,'11111222,11111222,99999999' 
ADCP,ioos:station:wmo:42373:1,2008-04-02T01:28:00Z,27.3540,-94.6250,79.0,196.0,23.5,-9999.0,'11111222,11111222,99999999' 
ADCP,ioos:station:wmo:42373:1,2008-04-02T01:48:00Z,27.3540,-94.6250,79.0,203.0,21.4,-9999.0,'11111222,11111222,99999999' 
ADCP,ioos:station:wmo:42373:1,2008-04-02T02:08:00Z,27.3540,-94.6250,79.0,203.0,19.9,-9999.0,'11111222,11111222,99999999' 
ADCP,ioos:station:wmo:42373:1,2008-04-02T02:28:00Z,27.3540,-94.6250,79.0,205.0,20.2,-9999.0,'11111222,11111222,99999999' 
ADCP,ioos:station:wmo:42373:1,2008-04-02T02:48:00Z,27.3540,-94.6250,79.0,207.0,19.9,-9999.0,'11111222,11111222,99999999' 
ADCP,ioos:station:wmo:42373:1,2008-04-02T03:08:00Z,27.3540,-94.6250,79.0,206.0,20.3,-9999.0,'11111222,11111222,99999999' 
ADCP,ioos:station:wmo:42373:1,2008-04-02T03:28:00Z,27.3540,-94.6250,79.0,204.0,19.2,-9999.0,'11111222,11111222,99999999' 
ADCP,ioos:station:wmo:42373:1,2008-04-02T03:48:00Z,27.3540,-94.6250,79.0,203.0,18.6,-9999.0,'11111222,11111222,99999999' 
ADCP,ioos:station:wmo:42373:1,2008-04-02T04:08:00Z,27.3540,-94.6250,79.0,205.0,19.8,-9999.0,'11111222,11111222,99999999' 
ADCP,ioos:station:wmo:42373:1,2008-04-02T04:28:00Z,27.3540,-94.6250,79.0,208.0,19.9,-9999.0,'11111222,11111222,99999999' 
ADCP,ioos:station:wmo:42373:1,2008-04-02T04:48:00Z,27.3540,-94.6250,79.0,210.0,19.9,-9999.0,'11111222,11111222,99999999' 
ADCP,ioos:station:wmo:42373:1,2008-04-02T05:08:00Z,27.3540,-94.6250,79.0,208.0,19.9,-9999.0,'11111222,11111222,99999999' 
ADCP,ioos:station:wmo:42373:1,2008-04-02T05:28:00Z,27.3540,-94.6250,79.0,208.0,18.7,-9999.0,'11111222,11111222,99999999' 
ADCP,ioos:station:wmo:42373:1,2008-04-02T05:48:00Z,27.3540,-94.6250,79.0,209.0,19.3,-9999.0,'11111222,11111222,99999999' 
ADCP,ioos:station:wmo:42373:1,2008-04-02T06:08:00Z,27.3540,-94.6250,79.0,214.0,20.7,-9999.0,'11111222,11111222,99999999' 
ADCP,ioos:station:wmo:42373:1,2008-04-02T06:28:00Z,27.3540,-94.6250,79.0,211.0,20.3,-9999.0,'11111222,11111222,99999999' 
ADCP,ioos:station:wmo:42373:1,2008-04-02T06:48:00Z,27.3540,-94.6250,79.0,213.0,19.6,-9999.0,'11111222,11111222,99999999' 
ADCP,ioos:station:wmo:42373:1,2008-04-02T07:08:00Z,27.3540,-94.6250,79.0,215.0,20.0,-9999.0,'11111222,11111222,99999999' 
ADCP,ioos:station:wmo:42373:1,2008-04-02T07:28:00Z,27.3540,-94.6250,79.0,217.0,19.9,-9999.0,'11111222,11111222,99999999' 
ADCP,ioos:station:wmo:42373:1,2008-04-02T07:48:00Z,27.3540,-94.6250,79.0,215.0,19.0,-9999.0,'11111222,11111222,99999999' 
ADCP,ioos:station:wmo:42373:1,2008-04-02T08:08:00Z,27.3540,-94.6250,79.0,216.0,19.1,-9999.0,'11111222,11111222,99999999' 
ADCP,ioos:station:wmo:42373:1,2008-04-02T08:28:00Z,27.3540,-94.6250,79.0,217.0,19.8,-9999.0,'11111222,11111222,99999999' 
ADCP,ioos:station:wmo:42373:1,2008-04-02T08:48:00Z,27.3540,-94.6250,79.0,219.0,19.7,-9999.0,'11111222,11111222,99999999' 
ADCP,ioos:station:wmo:42373:1,2008-04-02T09:08:00Z,27.3540,-94.6250,79.0,218.0,18.7,-9999.0,'11111222,11111222,99999999' 
ADCP,ioos:station:wmo:42373:1,2008-04-02T09:28:00Z,27.3540,-94.6250,79.0,215.0,18.0,-9999.0,'11111222,11111222,99999999' 
ADCP,ioos:station:wmo:42373:1,2008-04-02T09:48:00Z,27.3540,-94.6250,79.0,212.0,17.1,-9999.0,'11111222,11111222,99999999' 
ADCP,ioos:station:wmo:42373:1,2008-04-02T10:08:00Z,27.3540,-94.6250,79.0,216.0,18.3,-9999.0,'11111222,11111222,99999999' 
ADCP,ioos:station:wmo:42373:1,2008-04-02T10:28:00Z,27.3540,-94.6250,79.0,214.0,18.0,-9999.0,'11111222,11111222,99999999' 
ADCP,ioos:station:wmo:42373:1,2008-04-02T10:48:00Z,27.3540,-94.6250,79.0,215.0,18.1,-9999.0,'11111222,11111222,99999999' 
ADCP,ioos:station:wmo:42373:1,2008-04-02T11:08:00Z,27.3540,-94.6250,79.0,217.0,17.1,-9999.0,'11111222,11111222,99999999' 
ADCP,ioos:station:wmo:42373:1,2008-04-02T11:28:00Z,27.3540,-94.6250,79.0,221.0,16.4,-9999.0,'11111222,11111222,99999999' 
ADCP,ioos:station:wmo:42373:1,2008-04-02T11:48:00Z,27.3540,-94.6250,79.0,228.0,17.0,-9999.0,'11111222,11111222,99999999' 
ADCP,ioos:station:wmo:42373:1,2008-04-02T12:08:00Z,27.3540,-94.6250,79.0,220.0,12.5,-9999.0,'11111222,11111222,99999999' 
ADCP,ioos:station:wmo:42373:1,2008-04-02T12:28:00Z,27.3540,-94.6250,79.0,213.0,12.9,-9999.0,'11111222,11111222,99999999' 
ADCP,ioos:station:wmo:42373:1,2008-04-02T12:48:00Z,27.3540,-94.6250,79.0,220.0,14.8,-9999.0,'11111222,11111222,99999999' 
ADCP,ioos:station:wmo:42373:1,2008-04-02T13:08:00Z,27.3540,-94.6250,79.0,218.0,14.4,-9999.0,'11111222,11111222,99999999' 
ADCP,ioos:station:wmo:42373:1,2008-04-02T13:28:00Z,27.3540,-94.6250,79.0,236.0,17.9,-9999.0,'11111222,11111222,99999999' 
ADCP,ioos:station:wmo:42373:1,2008-04-02T13:48:00Z,27.3540,-94.6250,79.0,252.0,28.0,-9999.0,'11111222,11111222,99999999' 
ADCP,ioos:station:wmo:42373:1,2008-04-02T14:08:00Z,27.3540,-94.6250,79.0,214.0,28.1,-9999.0,'11111222,11111222,99999999' 
ADCP,ioos:station:wmo:42373:1,2008-04-02T14:28:00Z,27.3540,-94.6250,79.0,245.0,17.3,-9999.0,'11111222,11111222,99999999' 
ADCP,ioos:station:wmo:42373:1,2008-04-02T14:48:00Z,27.3540,-94.6250,79.0,255.0,19.9,-9999.0,'11111222,11111222,99999999' 
ADCP,ioos:station:wmo:42373:1,2008-04-02T15:08:00Z,27.3540,-94.6250,79.0,246.0,15.3,-9999.0,'11111222,11111222,99999999' 
ADCP,ioos:station:wmo:42373:1,2008-04-02T15:28:00Z,27.3540,-94.6250,79.0,230.0,18.1,-9999.0,'11111222,11111222,99999999' 
ADCP,ioos:station:wmo:42373:1,2008-04-02T15:48:00Z,27.3540,-94.6250,79.0,239.0,15.5,-9999.0,'11111222,11111222,99999999' 
ADCP,ioos:station:wmo:42373:1,2008-04-02T16:08:00Z,27.3540,-94.6250,79.0,236.0,13.8,-9999.0,'11111222,11111222,99999999' 
ADCP,ioos:station:wmo:42373:1,2008-04-02T16:28:00Z,27.3540,-94.6250,79.0,231.0,11.9,-9999.0,'11111222,11111222,99999999' 
ADCP,ioos:station:wmo:42373:1,2008-04-02T16:48:00Z,27.3540,-94.6250,79.0,230.0,11.2,-9999.0,'11111222,11111222,99999999' 
ADCP,ioos:station:wmo:42373:1,2008-04-02T17:08:00Z,27.3540,-94.6250,79.0,227.0,11.3,-9999.0,'11111222,11111222,99999999' 
ADCP,ioos:station:wmo:42373:1,2008-04-02T17:28:00Z,27.3540,-94.6250,79.0,221.0,9.4,-9999.0,'11133222,11111222,99999999' 
ADCP,ioos:station:wmo:42373:1,2008-04-02T17:48:00Z,27.3540,-94.6250,79.0,213.0,11.7,-9999.0,'11111222,11111222,99999999' 
ADCP,ioos:station:wmo:42373:1,2008-04-02T18:08:00Z,27.3540,-94.6250,79.0,198.0,11.0,-9999.0,'11111222,11111222,99999999' 
ADCP,ioos:station:wmo:42373:1,2008-04-02T18:28:00Z,27.3540,-94.6250,79.0,203.0,10.2,-9999.0,'11111222,11111222,99999999' 
ADCP,ioos:station:wmo:42373:1,2008-04-02T18:48:00Z,27.3540,-94.6250,79.0,207.0,12.2,-9999.0,'11111222,11111222,99999999' 
ADCP,ioos:station:wmo:42373:1,2008-04-02T19:08:00Z,27.3540,-94.6250,79.0,206.0,12.9,-9999.0,'11111222,11111222,99999999' 
ADCP,ioos:station:wmo:42373:1,2008-04-02T19:28:00Z,27.3540,-94.6250,79.0,198.0,11.9,-9999.0,'11111222,11111222,99999999' 
ADCP,ioos:station:wmo:42373:1,2008-04-02T19:48:00Z,27.3540,-94.6250,79.0,192.0,12.3,-9999.0,'11111222,11111222,99999999' 
ADCP,ioos:station:wmo:42373:1,2008-04-02T20:08:00Z,27.3540,-94.6250,79.0,186.0,12.1,-9999.0,'11111222,11111222,99999999' 
ADCP,ioos:station:wmo:42373:1,2008-04-02T20:28:00Z,27.3540,-94.6250,79.0,177.0,12.7,-9999.0,'11111222,11111222,99999999' 
ADCP,ioos:station:wmo:42373:1,2008-04-02T20:48:00Z,27.3540,-94.6250,79.0,174.0,13.6,-9999.0,'11111222,11111222,99999999' 
ADCP,ioos:station:wmo:42373:1,2008-04-02T21:08:00Z,27.3540,-94.6250,79.0,205.0,21.6,-9999.0,'11111222,11111222,99999999' 
ADCP,ioos:station:wmo:42373:1,2008-04-02T21:28:00Z,27.3540,-94.6250,79.0,171.0,12.3,-9999.0,'11111222,11111222,99999999' 
ADCP,ioos:station:wmo:42373:1,2008-04-02T21:48:00Z,27.3540,-94.6250,79.0,182.0,15.5,-9999.0,'11111222,11111222,99999999' 
ADCP,ioos:station:wmo:42373:1,2008-04-02T22:08:00Z,27.3540,-94.6250,79.0,165.0,17.0,-9999.0,'11111222,11111222,99999999' 
ADCP,ioos:station:wmo:42373:1,2008-04-02T22:28:00Z,27.3540,-94.6250,79.0,149.0,20.6,-9999.0,'11111222,11111222,99999999' 
ADCP,ioos:station:wmo:42373:1,2008-04-02T22:48:00Z,27.3540,-94.6250,79.0,162.0,19.9,-9999.0,'11111222,11111222,99999999' 
ADCP,ioos:station:wmo:42373:1,2008-04-02T23:08:00Z,27.3540,-94.6250,79.0,175.0,16.3,-9999.0,'11111222,11111222,99999999' 
ADCP,ioos:station:wmo:42373:1,2008-04-02T23:28:00Z,27.3540,-94.6250,79.0,180.0,16.3,-9999.0,'11111222,11111222,99999999' 
ADCP,ioos:station:wmo:42373:1,2008-04-02T23:48:00Z,27.3540,-94.6250,79.0,172.0,16.0,-9999.0,'11111222,11111222,99999999' 
ADCP,ioos:station:wmo:42373:1,2008-04-03T00:08:00Z,27.3540,-94.6250,79.0,174.0,17.5,-9999.0,'11111222,11111222,99999999' 
ADCP,ioos:station:wmo:42373:1,2008-04-03T00:28:00Z,27.3540,-94.6250,79.0,173.0,17.1,-9999.0,'11111222,11111222,99999999' 
ADCP,ioos:station:wmo:42373:1,2008-04-03T00:48:00Z,27.3540,-94.6250,79.0,171.0,17.0,-9999.0,'11111222,11111222,99999999' 
ADCP,ioos:station:wmo:42373:1,2008-04-03T01:08:00Z,27.3540,-94.6250,79.0,171.0,16.9,-9999.0,'11111222,11111222,99999999' 
ADCP,ioos:station:wmo:42373:1,2008-04-03T01:28:00Z,27.3540,-94.6250,79.0,173.0,16.3,-9999.0,'11111222,11111222,99999999' 
ADCP,ioos:station:wmo:42373:1,2008-04-03T01:48:00Z,27.3540,-94.6250,79.0,175.0,16.3,-9999.0,'11111222,11111222,99999999' 
ADCP,ioos:station:wmo:42373:1,2008-04-03T02:08:00Z,27.3540,-94.6250,79.0,171.0,16.6,-9999.0,'11111222,11111222,99999999' 
ADCP,ioos:station:wmo:42373:1,2008-04-03T02:28:00Z,27.3540,-94.6250,79.0,177.0,17.0,-9999.0,'11111222,11111222,99999999' 
ADCP,ioos:station:wmo:42373:1,2008-04-03T02:48:00Z,27.3540,-94.6250,79.0,185.0,16.5,-9999.0,'11111222,11111222,99999999' 
ADCP,ioos:station:wmo:42373:1,2008-04-03T03:08:00Z,27.3540,-94.6250,79.0,182.0,15.7,-9999.0,'11111222,11111222,99999999' 
ADCP,ioos:station:wmo:42373:1,2008-04-03T03:28:00Z,27.3540,-94.6250,79.0,181.0,17.1,-9999.0,'11111222,11111222,99999999' 
ADCP,ioos:station:wmo:42373:1,2008-04-03T03:48:00Z,27.3540,-94.6250,79.0,182.0,17.7,-9999.0,'11111222,11111222,99999999' 
ADCP,ioos:station:wmo:42373:1,2008-04-03T04:08:00Z,27.3540,-94.6250,79.0,178.0,19.2,-9999.0,'11111222,11111222,99999999' 
ADCP,ioos:station:wmo:42373:1,2008-04-03T04:28:00Z,27.3540,-94.6250,79.0,183.0,18.7,-9999.0,'11111222,11111222,99999999' 
ADCP,ioos:station:wmo:42373:1,2008-04-03T04:48:00Z,27.3540,-94.6250,79.0,182.0,18.0,-9999.0,'11111222,11111222,99999999' 
ADCP,ioos:station:wmo:42373:1,2008-04-03T05:08:00Z,27.3540,-94.6250,79.0,183.0,17.9,-9999.0,'11111222,11111222,99999999' 
ADCP,ioos:station:wmo:42373:1,2008-04-03T05:28:00Z,27.3540,-94.6250,79.0,184.0,18.6,-9999.0,'11111222,11111222,99999999' 
ADCP,ioos:station:wmo:42373:1,2008-04-03T05:48:00Z,27.3540,-94.6250,79.0,187.0,18.3,-9999.0,'11111222,11111222,99999999' 
ADCP,ioos:station:wmo:42373:1,2008-04-03T06:08:00Z,27.3540,-94.6250,79.0,186.0,17.7,-9999.0,'11111222,11111222,99999999' 
ADCP,ioos:station:wmo:42373:1,2008-04-03T06:28:00Z,27.3540,-94.6250,79.0,188.0,18.8,-9999.0,'11111222,11111222,99999999' 
ADCP,ioos:station:wmo:42373:1,2008-04-03T06:48:00Z,27.3540,-94.6250,79.0,195.0,19.6,-9999.0,'11111222,11111222,99999999' 
ADCP,ioos:station:wmo:42373:1,2008-04-03T07:08:00Z,27.3540,-94.6250,79.0,195.0,18.9,-9999.0,'11111222,11111222,99999999' 
ADCP,ioos:station:wmo:42373:1,2008-04-03T07:28:00Z,27.3540,-94.6250,79.0,196.0,18.8,-9999.0,'11111222,11111222,99999999' 
ADCP,ioos:station:wmo:42373:1,2008-04-03T07:48:00Z,27.3540,-94.6250,79.0,201.0,19.0,-9999.0,'11111222,11111222,99999999' 
ADCP,ioos:station:wmo:42373:1,2008-04-03T08:08:00Z,27.3540,-94.6250,79.0,201.0,18.6,-9999.0,'11111222,11111222,99999999' 
ADCP,ioos:station:wmo:42373:1,2008-04-03T08:28:00Z,27.3540,-94.6250,79.0,199.0,18.9,-9999.0,'11111222,11111222,99999999' 
ADCP,ioos:station:wmo:42373:1,2008-04-03T08:48:00Z,27.3540,-94.6250,79.0,201.0,19.0,-9999.0,'11111222,11111222,99999999' 
ADCP,ioos:station:wmo:42373:1,2008-04-03T09:08:00Z,27.3540,-94.6250,79.0,199.0,17.6,-9999.0,'11111222,11111222,99999999' 
ADCP,ioos:station:wmo:42373:1,2008-04-03T09:28:00Z,27.3540,-94.6250,79.0,201.0,17.3,-9999.0,'11111222,11111222,99999999' 
ADCP,ioos:station:wmo:42373:1,2008-04-03T09:48:00Z,27.3540,-94.6250,79.0,208.0,18.6,-9999.0,'11111222,11111222,99999999' 
ADCP,ioos:station:wmo:42373:1,2008-04-03T10:08:00Z,27.3540,-94.6250,79.0,211.0,18.0,-9999.0,'11111222,11111222,99999999' 
ADCP,ioos:station:wmo:42373:1,2008-04-03T10:28:00Z,27.3540,-94.6250,79.0,209.0,17.0,-9999.0,'11111222,11111222,99999999' 
ADCP,ioos:station:wmo:42373:1,2008-04-03T10:48:00Z,27.3540,-94.6250,79.0,209.0,16.7,-9999.0,'11111222,11111222,99999999' 
ADCP,ioos:station:wmo:42373:1,2008-04-03T11:08:00Z,27.3540,-94.6250,79.0,221.0,18.4,-9999.0,'11111222,11111222,99999999' 
ADCP,ioos:station:wmo:42373:1,2008-04-03T11:28:00Z,27.3540,-94.6250,79.0,217.0,17.7,-9999.0,'11111222,11111222,99999999' 
ADCP,ioos:station:wmo:42373:1,2008-04-03T11:48:00Z,27.3540,-94.6250,79.0,211.0,13.5,-9999.0,'11111222,11111222,99999999' 
ADCP,ioos:station:wmo:42373:1,2008-04-03T12:08:00Z,27.3540,-94.6250,79.0,225.0,12.0,-9999.0,'11111222,11111222,99999999' 
ADCP,ioos:station:wmo:42373:1,2008-04-03T12:28:00Z,27.3540,-94.6250,79.0,209.0,13.1,-9999.0,'11111222,11111222,99999999' 
ADCP,ioos:station:wmo:42373:1,2008-04-03T12:48:00Z,27.3540,-94.6250,79.0,222.0,16.1,-9999.0,'11111222,11111222,99999999' 
ADCP,ioos:station:wmo:42373:1,2008-04-03T13:08:00Z,27.3540,-94.6250,79.0,213.0,13.7,-9999.0,'11111222,11111222,99999999' 
ADCP,ioos:station:wmo:42373:1,2008-04-03T13:28:00Z,27.3540,-94.6250,79.0,217.0,13.2,-9999.0,'11111222,11111222,99999999' 
ADCP,ioos:station:wmo:42373:1,2008-04-03T13:48:00Z,27.3540,-94.6250,79.0,219.0,16.6,-9999.0,'11111222,11111222,99999999' 
ADCP,ioos:station:wmo:42373:1,2008-04-03T14:08:00Z,27.3540,-94.6250,79.0,219.0,16.1,-9999.0,'11111222,11111222,99999999' 
ADCP,ioos:station:wmo:42373:1,2008-04-03T14:28:00Z,27.3540,-94.6250,79.0,217.0,14.7,-9999.0,'11111222,11111222,99999999' 
ADCP,ioos:station:wmo:42373:1,2008-04-03T14:48:00Z,27.3540,-94.6250,79.0,215.0,14.3,-9999.0,'11111222,11111222,99999999' 
ADCP,ioos:station:wmo:42373:1,2008-04-03T15:08:00Z,27.3540,-94.6250,79.0,224.0,14.3,-9999.0,'11111222,11111222,99999999' 
ADCP,ioos:station:wmo:42373:1,2008-04-03T15:28:00Z,27.3540,-94.6250,79.0,218.0,13.7,-9999.0,'11111222,11111222,99999999' 
ADCP,ioos:station:wmo:42373:1,2008-04-03T15:48:00Z,27.3540,-94.6250,79.0,218.0,14.0,-9999.0,'11111222,11111222,99999999' 
ADCP,ioos:station:wmo:42373:1,2008-04-03T16:08:00Z,27.3540,-94.6250,79.0,205.0,12.5,-9999.0,'11111222,11111222,99999999' 
ADCP,ioos:station:wmo:42373:1,2008-04-03T16:28:00Z,27.3540,-94.6250,79.0,220.0,14.2,-9999.0,'11111222,11111222,99999999' 
ADCP,ioos:station:wmo:42373:1,2008-04-03T16:48:00Z,27.3540,-94.6250,79.0,219.0,13.8,-9999.0,'11111222,11111222,99999999' 